| time (UTC) | temp C | wind direction | speed KPH | gust KPH | rain 1hr cm | rain 24hr cm | rain mn cm | humidity % | barometer mb |
| 20260506211514 | 8 | 307 | 0.0 | 14.5 | 0.38 | 2.11 | 1.88 | 77 | 1006.0 |
| 20260506210013 | 10 | 290 | 4.8 | 12.9 | 0.10 | 1.80 | 1.57 | 75 | 1005.2 |
| 20260506204509 | 13 | 322 | 3.2 | 8.0 | 0.05 | 1.75 | 1.52 | 76 | 1004.7 |
| 20260506203008 | 14 | 138 | 1.6 | 9.7 | 0.05 | 1.73 | 1.50 | 77 | 1004.8 |
| 20260506201605 | 14 | 149 | 1.6 | 14.5 | 0.05 | 1.73 | 1.50 | 77 | 1004.9 |
| 20260506200108 | 14 | 153 | 4.8 | 20.9 | 0.03 | 1.70 | 1.45 | 77 | 1005.0 |
| 20260506194605 | 14 | 140 | 4.8 | 19.3 | 0.03 | 1.70 | 1.45 | 77 | 1005.0 |
| 20260506193100 | 14 | 167 | 8.0 | 16.1 | 0.10 | 1.70 | 1.45 | 77 | 1005.1 |
| 20260506193058 | 14 | 165 | 8.0 | 16.1 | 0.10 | 1.70 | 1.45 | 77 | 1005.1 |
| 20260506191604 | 13 | 134 | 3.2 | 11.3 | 0.18 | 1.68 | 1.42 | 77 | 1005.3 |
| 20260506190052 | 13 | 84 | 3.2 | 8.0 | 0.28 | 1.68 | 1.42 | 77 | 1005.6 |
| 20260506184550 | 13 | 252 | 3.2 | 11.3 | 0.84 | 1.68 | 1.42 | 77 | 1005.7 |
| 20260506183051 | 13 | 130 | 3.2 | 6.4 | 0.97 | 1.60 | 1.37 | 77 | 1005.8 |
| 20260506181555 | 13 | 121 | 1.6 | 3.2 | 0.91 | 1.50 | 1.27 | 77 | 1006.0 |
| 20260506180103 | 13 | 96 | 1.6 | 6.4 | 0.84 | 1.37 | 1.14 | 77 | 1006.0 |
| 20260506174539 | 13 | 302 | 1.6 | 14.5 | 0.36 | 0.84 | 0.61 | 76 | 1006.5 |
| 20260506173041 | 13 | 163 | 3.2 | 9.7 | 0.18 | 0.64 | 0.41 | 75 | 1006.2 |
| 20260506171535 | 13 | 123 | 3.2 | 8.0 | 0.15 | 0.58 | 0.36 | 75 | 1006.3 |
| 20260506170031 | 13 | 152 | 8.0 | 16.1 | 0.13 | 0.53 | 0.30 | 75 | 1006.4 |
| 20260506164530 | 13 | 149 | 6.4 | 14.5 | 0.08 | 0.48 | 0.25 | 75 | 1006.7 |
| 20260506163029 | 13 | 132 | 9.7 | 16.1 | 0.08 | 0.46 | 0.23 | 75 | 1006.6 |
| 20260506161524 | 13 | 115 | 11.3 | 20.9 | 0.08 | 0.43 | 0.20 | 74 | 1006.9 |
| 20260506160021 | 13 | 128 | 9.7 | 17.7 | 0.08 | 0.41 | 0.18 | 73 | 1007.3 |
| 20260506154519 | 13 | 147 | 4.8 | 16.1 | 0.10 | 0.41 | 0.18 | 74 | 1007.7 |
| 20260506153017 | 13 | 103 | 6.4 | 17.7 | 0.10 | 0.38 | 0.15 | 74 | 1007.9 |
| 20260506151514 | 13 | 128 | 4.8 | 14.5 | 0.08 | 0.36 | 0.13 | 74 | 1008.0 |
| 20260506150015 | 13 | 186 | 4.8 | 12.9 | 0.05 | 0.33 | 0.10 | 73 | 1008.2 |
| 20260506144519 | 13 | 167 | 6.4 | 14.5 | 0.03 | 0.30 | 0.08 | 71 | 1008.1 |
| 20260506143011 | 14 | 153 | 6.4 | 12.9 | 0.00 | 0.28 | 0.05 | 70 | 1008.0 |
| 20260506141508 | 14 | 184 | 6.4 | 12.9 | 0.00 | 0.28 | 0.05 | 69 | 1008.1 |
| 20260506140007 | 13 | 144 | 4.8 | 14.5 | 0.00 | 0.28 | 0.05 | 70 | 1008.0 |
| 20260506134506 | 13 | 149 | 6.4 | 20.9 | 0.00 | 0.28 | 0.05 | 70 | 1008.0 |
| 20260506133005 | 13 | 98 | 8.0 | 14.5 | 0.00 | 0.28 | 0.05 | 72 | 1008.3 |
| 20260506131506 | 12 | 130 | 1.6 | 9.7 | 0.00 | 0.28 | 0.05 | 75 | 1008.4 |
| 20260506130003 | 12 | 105 | 0.0 | 0.0 | 0.00 | 0.28 | 0.05 | 75 | 1008.2 |
| 20260506124502 | 12 | 302 | 0.0 | 0.0 | 0.00 | 0.28 | 0.05 | 74 | 1008.5 |
| 20260506123100 | 13 | 161 | 0.0 | 3.2 | 0.00 | 0.28 | 0.05 | 73 | 1008.5 |
| 20260506121558 | 12 | 203 | 4.8 | 11.3 | 0.00 | 0.28 | 0.05 | 73 | 1008.4 |
| 20260506120101 | 12 | 153 | 4.8 | 14.5 | 0.00 | 0.28 | 0.05 | 77 | 1008.4 |
| 20260506114556 | 11 | 202 | 0.0 | 0.0 | 0.00 | 0.28 | 0.05 | 77 | 1008.5 |
| 20260506113100 | 11 | 288 | 0.0 | 0.0 | 0.00 | 0.28 | 0.05 | 77 | 1008.7 |
| 20260506111558 | 11 | 288 | 0.0 | 3.2 | 0.00 | 0.28 | 0.05 | 78 | 1008.7 |
| 20260506110053 | 10 | 104 | 0.0 | 0.0 | 0.00 | 0.28 | 0.05 | 77 | 1008.7 |
| 20260506104557 | 10 | 104 | 0.0 | 0.0 | 0.00 | 0.28 | 0.05 | 77 | 1008.6 |
| 20260506103051 | 10 | 104 | 0.0 | 0.0 | 0.00 | 0.28 | 0.05 | 77 | 1008.9 |
| 20260506101548 | 10 | 104 | 0.0 | 0.0 | 0.00 | 0.28 | 0.05 | 77 | 1008.5 |
| 20260506100045 | 10 | 104 | 0.0 | 0.0 | 0.00 | 0.28 | 0.05 | 76 | 1008.7 |
| 20260506094544 | 11 | 104 | 0.0 | 0.0 | 0.00 | 0.28 | 0.05 | 76 | 1008.6 |
| 20260506093044 | 11 | 104 | 0.0 | 1.6 | 0.00 | 0.28 | 0.05 | 76 | 1008.7 |
| 20260506091542 | 11 | 104 | 0.0 | 0.0 | 0.00 | 0.28 | 0.05 | 76 | 1008.8 |
| 20260506090039 | 11 | 104 | 0.0 | 0.0 | 0.00 | 0.28 | 0.05 | 76 | 1008.9 |
| 20260506084537 | 12 | 104 | 0.0 | 0.0 | 0.00 | 0.28 | 0.05 | 75 | 1009.2 |
| 20260506083036 | 12 | 104 | 0.0 | 1.6 | 0.00 | 0.28 | 0.05 | 75 | 1009.1 |
| 20260506081501 | 12 | 104 | 0.0 | 1.6 | 0.00 | 0.28 | 0.05 | 75 | 1008.9 |
| 20260506080110 | 12 | 97 | 1.6 | 3.2 | 0.00 | 0.28 | 0.05 | 75 | 1008.8 |
| 20260506073105 | 12 | 128 | 0.0 | 0.0 | 0.00 | 0.28 | 0.05 | 74 | 1009.0 |
| 20260506071551 | 12 | 128 | 0.0 | 0.0 | 0.00 | 0.28 | 0.05 | 73 | 1009.2 |
| 20260506061517 | 13 | 35 | 0.0 | 3.2 | 0.03 | 0.28 | 0.05 | 72 | 1009.7 |
| 20260506044534 | 15 | 119 | 1.6 | 6.4 | 0.03 | 0.25 | 0.03 | 67 | 1009.1 |
| 20260506043022 | 16 | 175 | 6.4 | 12.9 | 0.03 | 0.25 | 0.03 | 62 | 1009.1 |
| 20260506041517 | 16 | 163 | 3.2 | 11.3 | 0.00 | 0.23 | 0.00 | 58 | 1008.7 |
| 20260506040012 | 16 | 211 | 0.0 | 6.4 | 0.00 | 0.23 | 0.00 | 57 | 1008.5 |
| 20260506034509 | 16 | 169 | 1.6 | 12.9 | 0.00 | 0.23 | 0.00 | 57 | 1008.7 |
| 20260506033038 | 16 | 165 | 3.2 | 16.1 | 0.00 | 0.23 | 0.00 | 58 | 1008.4 |
| 20260506031534 | 16 | 148 | 8.0 | 14.5 | 0.00 | 0.23 | 0.00 | 58 | 1008.3 |
| 20260506030028 | 15 | 126 | 4.8 | 8.0 | 0.00 | 0.23 | 0.00 | 60 | 1008.4 |
| 20260506024527 | 15 | 139 | 3.2 | 8.0 | 0.00 | 0.23 | 0.00 | 60 | 1008.7 |
| 20260506023021 | 15 | 154 | 6.4 | 12.9 | 0.00 | 0.23 | 0.00 | 60 | 1008.3 |
| 20260506021518 | 14 | 162 | 4.8 | 11.3 | 0.00 | 0.23 | 0.00 | 60 | 1008.2 |
| 20260506020012 | 13 | 124 | 6.4 | 11.3 | 0.00 | 0.23 | 0.00 | 61 | 1008.2 |
| 20260506014508 | 13 | 130 | 3.2 | 6.4 | 0.00 | 0.23 | 0.00 | 66 | 1008.1 |
| 20260506013003 | 15 | 208 | 0.0 | 9.7 | 0.00 | 0.23 | 0.23 | 64 | 1007.9 |
| 20260506011502 | 15 | 152 | 0.0 | 6.4 | 0.00 | 0.23 | 0.23 | 62 | 1007.9 |
| 20260506010116 | 15 | 146 | 1.6 | 6.4 | 0.00 | 0.23 | 0.23 | 59 | 1007.9 |
| 20260506004556 | 15 | 115 | 3.2 | 6.4 | 0.00 | 0.23 | 0.23 | 62 | 1008.0 |
| 20260506003057 | 15 | 143 | 1.6 | 4.8 | 0.00 | 0.23 | 0.23 | 63 | 1007.7 |
| 20260506001551 | 15 | 111 | 1.6 | 6.4 | 0.00 | 0.23 | 0.23 | 64 | 1007.7 |
| 20260506000056 | 15 | 162 | 3.2 | 6.4 | 0.00 | 0.23 | 0.23 | 64 | 1007.7 |
| 20260505234546 | 15 | 149 | 1.6 | 6.4 | 0.00 | 0.23 | 0.23 | 65 | 1007.5 |
| 20260505233044 | 15 | 97 | 0.0 | 4.8 | 0.00 | 0.23 | 0.23 | 67 | 1007.2 |
| 20260505231544 | 15 | 94 | 0.0 | 3.2 | 0.00 | 0.23 | 0.23 | 65 | 1007.1 |
| 20260505230038 | 15 | 107 | 3.2 | 9.7 | 0.00 | 0.23 | 0.23 | 64 | 1007.0 |
| 20260505224536 | 16 | 123 | 3.2 | 9.7 | 0.00 | 0.23 | 0.23 | 63 | 1007.0 |
| 20260505223035 | 16 | 108 | 0.0 | 11.3 | 0.00 | 0.23 | 0.23 | 62 | 1006.7 |
| 20260505221534 | 16 | 219 | 0.0 | 9.7 | 0.08 | 0.23 | 0.23 | 63 | 1007.0 |
| 20260505220045 | 16 | 266 | 3.2 | 16.1 | 0.10 | 0.23 | 0.23 | 61 | 1006.7 |
| 20260505214532 | 15 | 113 | 9.7 | 19.3 | 0.13 | 0.23 | 0.23 | 66 | 1006.4 |
| 20260505213024 | 15 | 155 | 9.7 | 17.7 | 0.23 | 0.23 | 0.23 | 65 | 1006.8 |